EDT,Max TemperatureF,Mean TemperatureF,Min TemperatureF,Max Dew PointF,MeanDew PointF,Min DewpointF,Max Humidity, Mean Humidity, Min Humidity, Max Sea Level PressureIn, Mean Sea Level PressureIn, Min Sea Level PressureIn, Max VisibilityMiles, Mean VisibilityMiles, Min VisibilityMiles, Max Wind SpeedMPH, Mean Wind SpeedMPH, Max Gust SpeedMPH,PrecipitationIn, CloudCover, Events, WindDirDegrees
2012-9-1,89,80,71,73,70,64,94,73,52,30.13,30.08,30.03,10,10,10,13,5,17,0.00,2,Rain,247
2012-9-2,80,74,69,73,71,70,100,91,70,30.08,30.05,29.99,10,10,7,7,1,,0.03,4,Rain,151
2012-9-3,80,74,68,73,71,68,100,89,70,30.07,30.03,30.00,10,9,2,10,3,,0.01,6,,153
2012-9-4,84,76,69,75,72,70,100,88,66,30.04,29.95,29.88,10,9,4,12,3,16,0.00,4,Rain-Thunderstorm,165
2012-9-5,91,81,71,73,71,66,100,80,46,29.89,29.85,29.80,10,10,7,12,5,16,0.03,5,Rain,226
2012-9-6,87,79,71,73,71,68,100,83,58,29.94,29.90,29.86,10,10,7,8,2,,0.00,4,Rain,169
2012-9-7,89,78,68,72,69,66,100,75,49,29.98,29.92,29.83,10,10,7,13,6,18,0.00,3,,204
2012-9-8,86,73,60,72,65,55,100,86,58,29.89,29.76,29.66,10,10,2,32,5,44,0.44,4,Rain,233
2012-9-9,77,64,50,57,52,46,100,70,34,30.02,29.92,29.87,10,10,2,17,4,25,0.00,3,,295
2012-9-10,73,63,53,52,49,45,94,67,38,30.20,30.11,30.01,10,10,10,16,6,21,0.00,2,,325
2012-9-11,75,60,46,50,47,45,100,69,36,30.34,30.28,30.21,10,10,10,8,2,,0.00,2,,191
2012-9-12,78,62,46,55,53,46,100,74,42,30.37,30.33,30.30,10,10,10,10,1,9,0.00,2,,152
2012-9-13,80,65,50,59,54,50,100,74,39,30.39,30.33,30.28,10,10,4,9,2,,0.00,1,,157
2012-9-14,80,65,50,61,56,50,100,76,45,30.29,30.20,30.13,10,10,7,10,3,,0.00,2,,202
2012-9-15,73,63,53,61,51,46,88,63,41,30.27,30.20,30.15,10,10,10,13,5,21,0.00,3,,336
2012-9-16,71,60,48,54,51,46,100,76,50,30.20,30.14,30.08,10,10,10,6,1,,0.00,2,,209
2012-9-17,77,62,46,64,56,46,100,86,54,30.12,30.05,29.96,10,9,5,13,3,17,0.00,3,Rain,144
2012-9-18,69,64,60,70,66,55,100,99,82,29.95,29.74,29.61,10,8,3,16,6,24,0.95,7,Rain,189
2012-9-19,66,57,48,54,47,41,94,71,42,30.18,30.08,29.90,10,10,10,15,7,21,0.00,3,,321
2012-9-20,71,56,42,55,50,43,100,79,53,30.19,30.12,30.05,10,10,10,12,2,16,0.00,2,,154
2012-9-21,78,64,51,63,58,52,100,81,54,30.07,30.01,29.92,10,9,2,13,3,17,0.00,2,,157
2012-9-22,82,71,60,63,58,46,100,70,42,29.98,29.87,29.80,10,10,10,25,6,34,0.00,4,,241
2012-9-23,64,55,46,46,43,37,87,62,39,30.18,30.12,29.99,10,10,10,23,9,29,0.00,4,,307
2012-9-24,66,55,44,48,42,37,100,66,35,30.25,30.18,30.13,10,10,10,10,2,17,0.00,3,,271
2012-9-25,73,58,44,55,47,41,93,68,36,30.19,30.14,30.05,10,10,10,9,4,16,0.00,3,,203
2012-9-26,80,68,55,64,59,54,100,76,51,30.15,30.10,30.07,10,10,4,13,6,20,0.13,3,Rain-Thunderstorm,224
2012-9-27,78,68,59,68,63,59,100,87,57,30.19,30.13,30.08,10,8,2,8,3,17,0.28,4,Rain-Thunderstorm,139
2012-9-28,71,65,59,66,58,50,100,81,60,30.10,30.05,30.01,10,8,0,10,4,16,0.04,4,Fog-Rain-Thunderstorm,296
2012-9-29,64,57,50,50,48,46,100,76,52,30.05,30.00,29.94,10,10,10,10,5,9,0.00,2,,324
2012-9-30,69,56,44,52,50,45,100,84,46,29.94,29.89,29.81,10,9,0,10,3,24,0.06,3,Fog-Rain-Thunderstorm,224